#timestamp,LO_Frequency,Hit,StdDev 
1655748015.5,286047001.5,N
1655748035.3,286047001.8,N
1655748055.2,286047001.5,N
1655748075.0,286047001.6,N
1655748075.9,286047001.6,N
1655748095.8,286047002.3,N
1655748115.6,286047002.8,N
1655748135.4,286047002.3,N
1655748155.3,286047000.0,N
1655748175.1,286046999.9,N
1655748195.8,286047000.0,N
1655748215.7,286047000.9,N
1655748235.5,286047000.9,N
1655748255.4,286047000.7,N
1655748275.2,286047000.7,N
1655748295.0,286047000.4,N
1655748295.9,286047000.4,N
1655748315.8,286047000.2,N
1655748335.6,286047002.8,N
1655748355.4,286047000.3,N
1655748375.3,286047000.0,N
1655748395.1,286046999.7,N
1655748415.9,286046998.2,N
1655748435.7,286047000.8,N
1655748455.6,286046998.7,N
1655748475.4,286046998.9,N
1655748495.2,286046999.2,N
1655748515.1,286046998.7,N
1655748516.0,286046998.7,N
1655748535.8,286046998.8,N
1655748555.7,286046999.5,N
1655748575.5,286046999.2,N
1655748595.3,286046998.7,N
1655748615.2,286046997.0,N
1655748635.0,286046999.1,N
1655748635.9,286046999.1,N
1655748655.7,286046999.2,N
1655748675.6,286046999.5,N
1655748695.4,286046996.6,Y
1655748715.3,286046999.4,P
1655748735.1,286046999.4,P
1655748755.8,286046999.0,P
1655748775.7,286046999.1,Y
1655748795.5,286046999.2,P
1655748815.4,286046998.9,P
1655748835.2,286046999.1,P
1655748855.0,286046996.5,Y
1655748855.9,286046996.5,P
1655748875.8,286046999.3,N
1655748895.6,286046998.2,N
1655748915.4,286046998.4,N
1655748935.3,286047000.7,N
1655748955.1,286046998.1,N
1655748975.9,286046998.9,N
1655748995.7,286046998.9,N
1655749015.5,286046998.2,N
1655749035.4,286046999.0,N
1655749055.2,286046996.9,Y
1655749075.1,286046998.5,P
1655749076.0,286046998.5,P
1655749095.8,286046998.2,P
1655749115.6,286046998.6,Y
1655749135.5,286047000.0,P
1655749155.3,286047002.3,N
1655749175.2,286047000.2,N
1655749195.9,286046999.9,N
1655749215.7,286046999.8,N
1655749235.6,286047002.4,N
1655749255.4,286047002.4,N
1655749275.3,286047002.3,N
1655749295.1,286047002.0,N
1655749296.0,286047002.0,N
1655749315.8,286047003.9,N
1655749335.7,286047001.8,N
1655749355.5,286047001.8,N
1655749375.4,286047001.7,N
1655749395.2,286047003.6,N
1655749415.0,286047001.7,N
1655749415.9,286047001.7,N
1655749435.8,286047003.9,N
1655749455.6,286047001.5,N
1655749475.5,286047001.7,N
1655749495.3,286047001.6,N
1655749515.1,286047004.3,Y
1655749535.9,286047000.7,P
1655749555.7,286047000.0,N
1655749575.7,286046999.8,N
1655749595.5,286047000.7,N
1655749615.3,286047000.1,N
1655749635.2,286047000.9,N
1655749655.0,286046999.9,N
1655749655.9,286046999.9,N
1655749675.8,286047000.2,N
1655749695.6,286047000.6,N
1655749715.4,286047000.9,N
1655749735.3,286047001.0,N
1655749755.1,286047001.1,N
1655749775.9,286047001.2,N
1655749795.7,286046998.1,Y
1655749815.5,286046998.7,P
1655749835.4,286047001.2,N
1655749855.2,286046998.4,N
1655749875.1,286046998.1,N
1655749876.0,286046998.1,N
1655749895.8,286046998.2,N
1655749915.7,286046998.7,N
1655749935.5,286046998.1,N
1655749955.3,286047001.1,N
1655749975.2,286047001.0,N
1655749995.0,286046998.1,N
1655749995.9,286046998.1,N
1655750015.8,286047000.5,N
1655750035.6,286047000.7,N
1655750055.4,286047001.1,N
1655750075.3,286047001.2,N
1655750095.1,286047000.8,N
1655750115.8,286046998.5,N
1655750135.7,286046998.5,N
1655750155.5,286046999.4,N
1655750175.4,286046998.9,N
1655750195.2,286046999.0,N
1655750215.0,286046998.8,N
1655750215.9,286046998.8,N
1655750235.8,286046998.6,N
1655750255.6,286046999.6,N
1655750275.5,286046999.4,N
1655750295.3,286046999.6,N
1655750315.1,286046999.6,N
1655750335.9,286046999.6,N
1655750355.7,286046999.5,N
1655750375.5,286046999.6,N
1655750395.4,286046999.5,N
1655750415.2,286046997.0,Y
1655750435.1,286046996.7,P
1655750436.0,286046996.7,N
1655750455.8,286046999.2,N
1655750475.6,286046999.3,N
1655750495.5,286046999.0,N
1655750515.3,286047001.1,N
1655750535.2,286046998.1,N
1655750555.9,286046999.4,N
1655750575.7,286046999.2,N
1655750595.6,286046999.1,N
1655750615.4,286046999.2,N
1655750635.2,286046999.6,N
1655750655.1,286046998.9,N
1655750656.0,286046998.9,N
1655750675.8,286046996.6,Y
1655750695.7,286046998.3,P
1655750715.5,286047000.7,N
1655750735.3,286047000.3,N
1655750755.2,286047000.4,N
1655750775.0,286047000.4,N
1655750775.9,286047000.4,N
1655750795.7,286047000.3,N
1655750815.6,286047000.4,N
1655750835.4,286047000.4,N
1655750855.3,286047001.0,N
1655750875.1,286047000.0,N
1655750876.0,286047000.0,N
1655750895.8,286047000.0,N
1655750915.7,286047000.5,N
1655750935.5,286047000.9,N
1655750955.4,286047000.4,N
1655750975.2,286047001.2,N
1655750995.0,286047000.8,N
1655750995.9,286047000.8,N
1655751015.8,286046998.3,N
1655751035.6,286046998.5,N
1655751055.5,286046998.3,N
1655751075.3,286046998.6,N
1655751095.1,286046998.6,N
1655751115.9,286046999.3,N
1655751135.7,286046998.8,N
1655751155.5,286046998.1,N
1655751175.4,286046998.6,N
1655751195.2,286046998.7,N
1655751215.0,286047001.2,N
1655751216.0,286047001.2,N
1655751235.8,286046998.2,N
1655751255.6,286046999.4,N
1655751275.5,286046998.2,N
1655751295.3,286046999.1,N
1655751315.1,286046999.5,N
1655751335.9,286046998.6,N
1655751355.7,286046998.6,N
1655751375.6,286046998.8,N
1655751395.4,286046998.3,N
1655751415.2,286046999.3,N
1655751435.1,286046999.3,N
1655751436.0,286046999.3,N
1655751455.8,286046999.3,N
1655751475.7,286046996.9,Y
1655751495.5,286046996.7,P
1655751515.3,286046999.4,N
1655751535.2,286046999.1,N
1655751555.0,286046999.4,N
1655751555.9,286046999.4,N
1655751575.7,286046998.8,N
1655751595.6,286046998.9,N
